Regional Weather Roundup
Issued by NWS Goodland, KS

Home | Current Version | Previous Version | Graphics & Text | Print | Product List | Glossary On
Versions: 1 2 3 4 5 6 7 8 9 10 11 12 13 14 15 16 17 18 19 20 21 22 23 24 25 26 27 28 29 30 31 32 33 34 35 36 37 38 39 40 41 42 43 44 45 46 47 48 49 50
000
ASUS43 KGLD 312108
RWRGLD

GOODLAND FORECAST AREA HOURLY WEATHER ROUNDUP
NATIONAL WEATHER SERVICE GOODLAND KS
300 PM MDT THU JUL 31 2014

...OFFICIAL OBSERVATIONS...

CITY           SKY/WX    TMP DP  RH WIND       PRES   REMARKS
GOODLAND KS    MOSUNNY   83  48  29 MISG      30.19F
HILL CITY KS   MOSUNNY   91  48  22 VRB7      30.09F
IMPERIAL NEB   SUNNY     84  49  29 CALM      30.14F
MCCOOK NEB     MOSUNNY   88  50  27 W7        30.09F
AKRON CO       SUNNY     77  45  32 W6        30.23F
BURLINGTON CO  PTSUNNY   79  47  32 S6        30.22F
LIMON CO       PTSUNNY   71  51  49 CALM      30.29F
$$

...UNOFFICIAL OBSERVATIONS...

CITY           SKY/WX    TMP DP  RH WIND       PRES   REMARKS
COLBY KS       SUNNY     84  54  34 SW7       30.16F
GOVE KS          N/A     84  32  15 MISG        N/A
LENORA KS        N/A     87  32  14 MISG        N/A
NORTON KS      MOSUNNY   88  37  16 NW7G13    30.07F
OBERLIN KS     FAIR      86  43  22 N5        30.10F
SHARON SPRINGS   N/A     82  51  34 CALM        N/A
ST FRANCIS KS  SUNNY     82  39  21 CALM      30.17F
TRIBUNE KS     PTSUNNY   77 N/A N/A S8        30.22F
WAKEENEY KS      N/A     89  44  20 MISG        N/A
TRENTON NEB      N/A     86  32  14 NW9         N/A
KIT CARSON CO    N/A     76  50  39 N6          N/A
YUMA CO          N/A     82  46  28 CALM        N/A
$$


USA.gov is the U.S. government's official web portal to all federal, state and local government web resources and services.